Weather History for Lacon, IL

Change the Weather History Date:

Friday, December 14, 2012

  Actual Average (KPIA) Record (KPIA)
Temperature  
Mean Temperature 44 °F 29 °F  
Max Temperature 57 °F 36 °F 66 °F (1975)
Min Temperature 32 °F 21 °F -7 °F (1989)
Degree Days  
Heating Degree Days 20 36  
Month to date heating degree days 476  
Since 1 July heating degree days 1624  
Cooling Degree Days 0 0  
Month to date cooling degree days 0  
Year to date cooling degree days 1039  
Moisture  
Dew Point 32 °F    
Average Humidity 62    
Maximum Humidity 82    
Minimum Humidity 36    
Precipitation  
Precipitation 0.00 in 0.08 in 1.46 in (2011)
Month to date precipitation 1.24  
Year to date precipitation 35.31  
Snow  
Snow 0.00 in 0.30 in 4.20 in (1951)
Month to date snowfall 2.9  
Since 1 July snowfall 4.0  
Snow Depth -    
Sea Level Pressure  
Sea Level Pressure 30.11 in    
Wind  
Wind Speed 4 mph (SSE)    
Max Wind Speed 10 mph    
Max Gust Speed -    
Visibility 10 miles    
Events Rain    
T = Trace of Precipitation, MM = Missing Value Source: NWS Daily Summary

Daily Weather History Graph

Daily Weather History Graph

Search for Another Location

Airport:

Trip Planner

Search our weather history database for the weather conditions in past years. The results will help you decide how hot, cold, wet, or windy it might be!

Date:

Astronomy

Dec. 14, 2012 Rise Set
Actual Time 7:15 AM CST 4:29 PM CST
Civil Twilight 6:43 AM CST 5:01 PM CST
Nautical Twilight 6:09 AM CST 5:35 PM CST
Astronomical Twilight 5:35 AM CST 6:09 PM CST
Moon 8:19 AM CST (12/14) 6:22 PM CST (12/14)
Length of Visible Light 10h 17m
Length of Day
9h 14m
Waxing Crescent, 3% of the Moon is Illuminated
Dec 14
Waxing Crescent
Dec 19
First Quarter
Dec 28
Full
Jan 4
Last Quarter
Jan 11
New

Hourly Weather History & Observations

Time (CST) Temp. Windchill Dew Point Humidity Pressure Visibility Wind Dir Wind Speed Gust Speed Precip Events Conditions
12:15 AM 41.5 °F 37.8 °F 30.6 °F 65% 30.16 in 10.0 mi South 5.8 mph - N/A   Scattered Clouds
12:35 AM 41.5 °F 38.6 °F 30.7 °F 65% 30.15 in 10.0 mi South 4.6 mph - N/A   Clear
12:55 AM 40.3 °F 38.2 °F 30.2 °F 67% 30.15 in 10.0 mi South 3.5 mph - N/A   Clear
1:15 AM 39.0 °F 36.8 °F 30.0 °F 70% 30.16 in 10.0 mi South 3.5 mph - N/A   Clear
1:35 AM 40.8 °F 38.8 °F 30.6 °F 67% 30.16 in 10.0 mi South 3.5 mph - N/A   Clear
1:55 AM 40.5 °F 38.4 °F 29.8 °F 66% 30.16 in 10.0 mi South 3.5 mph - N/A   Clear
2:15 AM 40.1 °F 38.0 °F 29.8 °F 67% 30.16 in 10.0 mi South 3.5 mph - N/A   Clear
2:35 AM 40.5 °F 37.3 °F 30.2 °F 67% 30.17 in 10.0 mi South 4.6 mph - N/A   Clear
2:55 AM 40.3 °F 38.2 °F 30.0 °F 67% 30.16 in 10.0 mi South 3.5 mph - N/A   Clear
3:15 AM 39.2 °F 37.0 °F 30.0 °F 70% 30.16 in 10.0 mi South 3.5 mph - N/A   Clear
3:35 AM 36.5 °F 33.9 °F 28.9 °F 74% 30.16 in 10.0 mi SSE 3.5 mph - N/A   Clear
3:55 AM 36.5 °F 33.9 °F 28.6 °F 73% 30.16 in 10.0 mi SSE 3.5 mph - N/A   Clear
4:15 AM 36.7 °F - 28.4 °F 72% 30.16 in 10.0 mi Calm Calm - N/A   Clear
4:35 AM 35.4 °F - 28.2 °F 75% 30.16 in 10.0 mi Calm Calm - N/A   Clear
4:55 AM 33.3 °F - 27.0 °F 78% 30.16 in 10.0 mi Calm Calm - N/A   Scattered Clouds
5:15 AM 33.6 °F - 27.5 °F 78% 30.16 in 10.0 mi Calm Calm - N/A   Scattered Clouds
5:35 AM 32.7 °F - 26.4 °F 78% 30.16 in 10.0 mi Calm Calm - N/A   Unknown
5:55 AM 32.4 °F - 27.5 °F 82% 30.16 in 10.0 mi Calm Calm - N/A   Unknown
6:15 AM 32.2 °F - 27.3 °F 82% 30.15 in 10.0 mi Calm Calm - N/A   Unknown
6:35 AM 32.9 °F - 27.5 °F 81% 30.16 in 10.0 mi Calm Calm - N/A   Unknown
6:55 AM 32.5 °F - 27.3 °F 81% 30.16 in 10.0 mi Calm Calm - N/A   Unknown
7:15 AM 32.7 °F - 27.5 °F 81% 30.16 in 10.0 mi Calm Calm - N/A   Unknown
7:35 AM 32.0 °F - 27.1 °F 82% 30.16 in 10.0 mi Calm Calm - N/A   Unknown
7:55 AM 32.7 °F - 27.7 °F 82% 30.17 in 10.0 mi Calm Calm - N/A   Unknown
8:15 AM 33.6 °F - 28.6 °F 82% 30.18 in 10.0 mi Calm Calm - N/A   Unknown
8:35 AM 37.6 °F - 31.1 °F 77% 30.17 in 10.0 mi Calm Calm - N/A   Unknown
8:55 AM 40.1 °F - 31.1 °F 70% 30.18 in 10.0 mi Calm Calm - N/A   Unknown
9:15 AM 42.1 °F - 30.7 °F 64% 30.18 in 10.0 mi Calm Calm - N/A   Unknown
9:35 AM 43.7 °F - 31.6 °F 63% 30.19 in 10.0 mi Calm Calm - N/A   Clear
9:55 AM 45.5 °F - 31.5 °F 58% 30.19 in 10.0 mi Calm Calm - N/A   Clear
10:15 AM 47.5 °F - 30.9 °F 53% 30.18 in 10.0 mi SSW 3.5 mph - N/A   Clear
10:35 AM 48.6 °F - 30.0 °F 49% 30.18 in 10.0 mi SSW 3.5 mph - N/A   Clear
10:55 AM 49.6 °F - 29.7 °F 46% 30.16 in 10.0 mi South 3.5 mph - N/A   Clear
11:15 AM 51.1 °F - 29.8 °F 44% 30.15 in 10.0 mi SSW 3.5 mph - N/A   Clear
11:35 AM 51.8 °F - 28.8 °F 41% 30.14 in 10.0 mi SW 3.5 mph - N/A   Clear
11:55 AM 52.7 °F - 28.9 °F 40% 30.13 in 10.0 mi Calm Calm - N/A   Clear
12:15 PM 53.8 °F - 28.9 °F 39% 30.12 in 10.0 mi SW 3.5 mph - N/A   Clear
12:35 PM 54.3 °F - 28.9 °F 38% 30.11 in 10.0 mi SSW 3.5 mph - N/A   Clear
12:55 PM 54.9 °F - 28.4 °F 36% 30.10 in 10.0 mi SW 3.5 mph - N/A   Clear
1:15 PM 55.2 °F - 28.8 °F 36% 30.10 in 10.0 mi SSW 3.5 mph - N/A   Clear
1:35 PM 56.1 °F - 29.8 °F 37% 30.09 in 10.0 mi Calm Calm - N/A   Clear
1:55 PM 57.2 °F - 31.6 °F 38% 30.08 in 10.0 mi ESE 6.9 mph - N/A   Clear
2:15 PM 56.1 °F - 31.3 °F 39% 30.07 in 10.0 mi ESE 6.9 mph - N/A   Clear
2:35 PM 56.3 °F - 31.8 °F 39% 30.07 in 10.0 mi SE 8.1 mph - N/A   Clear
2:55 PM 55.8 °F - 32.0 °F 41% 30.07 in 10.0 mi SE 6.9 mph - N/A   Clear
3:15 PM 55.0 °F - 32.0 °F 42% 30.07 in 10.0 mi SE 4.6 mph - N/A   Clear
3:35 PM 54.3 °F - 32.9 °F 44% 30.06 in 10.0 mi SE 5.8 mph - N/A   Clear
3:55 PM 53.2 °F - 34.0 °F 48% 30.07 in 10.0 mi ESE 4.6 mph - N/A   Clear
4:15 PM 52.5 °F - 35.1 °F 51% 30.07 in 10.0 mi ESE 6.9 mph - N/A   Clear
4:35 PM 52.3 °F - 35.6 °F 53% 30.05 in 10.0 mi ESE 6.9 mph - N/A   Clear
4:55 PM 51.8 °F - 36.0 °F 55% 30.06 in 10.0 mi ESE 6.9 mph - N/A   Clear
5:15 PM 51.4 °F - 36.5 °F 57% 30.06 in 10.0 mi ESE 9.2 mph - N/A   Clear
5:35 PM 51.8 °F - 36.9 °F 57% 30.05 in 10.0 mi ESE 9.2 mph - N/A   Clear
5:55 PM 51.3 °F - 36.3 °F 57% 30.05 in 10.0 mi ESE 6.9 mph - N/A   Unknown
6:15 PM 50.0 °F - 37.9 °F 63% 30.06 in 10.0 mi ESE 9.2 mph - N/A   Unknown
6:35 PM 50.0 °F - 39.2 °F 66% 30.05 in 10.0 mi ESE 9.2 mph - N/A   Unknown
6:55 PM 49.5 °F - 39.6 °F 69% 30.05 in 10.0 mi ESE 10.4 mph - N/A   Unknown
7:15 PM 49.1 °F - 39.6 °F 70% 30.05 in 10.0 mi ESE 6.9 mph - N/A   Unknown
7:35 PM 47.3 °F - 39.6 °F 74% 30.05 in 10.0 mi SE 3.5 mph - N/A   Unknown
7:55 PM 46.9 °F - 39.4 °F 75% 30.05 in 10.0 mi SE 3.5 mph - N/A   Unknown
8:15 PM 46.8 °F - 39.4 °F 75% 30.05 in 10.0 mi SE 3.5 mph - N/A   Unknown
8:35 PM 46.4 °F 45.2 °F 39.2 °F 76% 30.04 in 10.0 mi SSE 3.5 mph - N/A   Unknown
8:55 PM 47.1 °F - 39.4 °F 74% 30.03 in 10.0 mi ESE 5.8 mph - N/A   Unknown
9:15 PM 49.1 °F - 39.2 °F 69% 30.02 in 10.0 mi ESE 9.2 mph - N/A   Unknown
9:35 PM 49.1 °F - 39.2 °F 69% 30.01 in 10.0 mi ESE 6.9 mph - N/A   Unknown
9:55 PM 50.0 °F - 37.9 °F 63% 30.01 in 10.0 mi SSE 3.5 mph - N/A   Unknown
10:15 PM 50.9 °F - 36.5 °F 58% 30.00 in 10.0 mi SE 10.4 mph - N/A   Unknown
10:35 PM 50.5 °F - 36.7 °F 59% 29.99 in 10.0 mi ESE 4.6 mph - N/A Rain Light Rain
10:55 PM 50.4 °F - 36.5 °F 59% 29.99 in 10.0 mi SE 6.9 mph - N/A Rain Light Rain
11:15 PM 50.0 °F - 36.9 °F 61% 29.99 in 10.0 mi ESE 5.8 mph - N/A   Unknown
11:35 PM 49.5 °F - 37.8 °F 64% 29.99 in 10.0 mi ESE 4.6 mph - N/A Rain Light Rain
11:55 PM 49.6 °F - 37.9 °F 64% 29.98 in 10.0 mi SE 5.8 mph - N/A   Unknown